Regional Weather Roundup
Issued by NWS

Home | Current Version | Previous Version | Graphics & Text | Print | Product List | Glossary On
Versions: 1 2 3 4 5 6 7 8 9 10 11 12 13 14 15 16 17 18 19 20 21 22 23 24 25 26 27 28 29 30 31 32 33 34 35 36 37 38 39 40 41 42 43 44 45 46 47 48 49 50
000
ASUS43 KOAX 061110
RWRNE

WEATHER ROUNDUP FOR NEBRASKA
NATIONAL WEATHER SERVICE OMAHA NE
600 AM CDT MON JUL 06 2015

NOTES: SATELLITE DATA IS BEING USED TO AUGMENT CLOUD COVER ABOVE
       12000 FEET.
       "FAIR" INDICATES FEW OR NO CLOUDS BELOW 12,000 FEET WITH NO
       SIGNIFICANT WEATHER AND/OR OBSTRUCTIONS TO VISIBILITY.

  * THESE STATIONS DO NOT REPORT WEATHER SUCH AS RAIN...SNOW OR FOG.

NEZ001>004-019>022-054>056-061200-
NEBRASKA PANHANDLE

CITY           SKY/WX    TMP DP  RH WIND       PRES   REMARKS
SCOTTSBLUFF    RAIN      60  58  92 N10       30.14R FOG
ALLIANCE       CLOUDY    60  58  92 N15       30.11R
CHADRON        CLOUDY    59  56  89 N8        30.14R FOG
KIMBALL          N/A    N/A N/A N/A MISG        N/A
SIDNEY         LGT RAIN  61  60  97 N13       30.12R
$$

NEZ057>060-069>072-079>082-061200-
SOUTHWEST NEBRASKA

CITY           SKY/WX    TMP DP  RH WIND       PRES   REMARKS
NORTH PLATTE   CLOUDY    65  61  87 N12G18    29.97R
IMPERIAL       CLOUDY    65  61  87 N16G23    29.99R
LEXINGTON      CLOUDY    69  67  92 NW6       29.92R
MCCOOK         CLOUDY    68  65  90 N12       29.91R
OGALLALA       CLOUDY    65  61  87 N14G20    30.03R
$$

NEZ005>010-023>029-035>040-094-061200-
NORTH CENTRAL NEBRASKA

CITY           SKY/WX    TMP DP  RH WIND       PRES   REMARKS
VALENTINE      CLOUDY    61  58  90 N14G22    30.03R
AINSWORTH      LGT RAIN  63  63 100 N25G31    29.99R
BROKEN BOW     CLOUDY    67  65  93 N9        29.94R
O`NEILL        LGT RAIN  67  67  98 N14G25    29.89R
ORD            RAIN      69  67  93 NW8       29.90R
THEDFORD       CLOUDY    65  63  92 N15       30.01R
$$

NEZ041-046>049-061>064-073>077-083>087-061200-
SOUTH CENTRAL NEBRASKA

CITY           SKY/WX    TMP DP  RH WIND       PRES   REMARKS
GRAND ISLAND   CLOUDY    70  68  93 NE8       29.87S
AURORA         CLOUDY    69  69 100 NE8       29.86F
HASTINGS       CLOUDY    70  68  93 NE6       29.87R
HEBRON         CLOUDY    74  66  75 E6        29.87S
HOLDREGE       TSTM      69  66  90 N9        29.90S
KEARNEY *      CLOUDY    70  66  88 N8        29.89R
YORK           LGT RAIN  70  68  94 NE7       29.85F
$$

NEZ011>018-030>034-042>045-061200-
NORTHEAST NEBRASKA

CITY           SKY/WX    TMP DP  RH WIND       PRES   REMARKS
NORFOLK        LGT RAIN  70  68  93 N6        29.86F
ALBION         DRIZZLE   69  66  90 E3        29.88F
BLAIR          RAIN      73  68  86 NW7       29.89R
COLUMBUS *     CLOUDY    70  64  83 E6        29.83F
FREMONT        RAIN      73  70  91 NE3       29.87F
TEKAMAH        LGT RAIN  73  70  90 N8        29.86R
WAYNE          LGT RAIN  69  68  96 CALM      29.88R
$$

NEZ050>053-065>068-078-088>093-061200-
SOUTHEAST NEBRASKA

CITY           SKY/WX    TMP DP  RH WIND       PRES   REMARKS
LINCOLN        LGT RAIN  74  68  81 N12       29.86S
OMAHA EPPLEY   CLOUDY    76  71  85 NW10      29.86R
BEATRICE       CLOUDY    76  67  74 N6        29.87S
FALLS CITY     CLOUDY    78  72  81 SW8       29.86R
NEBRASKA CITY  CLOUDY    78  69  73 SW7       29.86R
PLATTSMOUTH    CLOUDY    76  71  82 W7        29.87R
$$

NEZ044-045-051>053-067-061200-
OMAHA AREA

CITY           SKY/WX    TMP DP  RH WIND       PRES   REMARKS
OMAHA EPPLEY   CLOUDY    76  71  85 NW10      29.86R
BLAIR          RAIN      73  68  86 NW7       29.89R
FREMONT        RAIN      73  70  91 NE3       29.87F
MILLARD        CLOUDY    76  71  83 NW9       29.87R
OFFUTT AFB     CLOUDY    77  70  77 NW13G18   29.86R
PLATTSMOUTH    CLOUDY    76  71  82 W7        29.87R
WAHOO          LGT RAIN  73  71  92 N13G21    29.87S
$$



USA.gov is the U.S. government's official web portal to all federal, state and local government web resources and services.